Total_Precipitation_Accumulation
1.51 1.80 2.59 3.19 3.21 2.57 2.00 1.52 1.29 1.32 1.17 0.88 0.64 0.60 0.89 1.25 1.59 2.01 2.13 1.83 1.31 1.15 1.20 1.60 1.86 1.72 1.48 1.42 1.47 1.48 1.42 1.40 1.38 1.30 1.29 1.03 0.90 0.84 0.78 0.78 0.73 0.68 0.61 0.62 0.70 0.71 0.65 0.53 0.50
1.29 2.25 3.18 3.64 2.96 2.06 1.82 1.49 1.48 1.32 0.97 0.72 0.53 0.51 0.71 0.75 0.62 1.15 2.09 2.08 1.33 1.16 1.15 1.37 1.76 1.62 1.45 1.45 1.50 1.50 1.49 1.46 1.47 1.37 1.15 0.90 0.89 0.87 0.84 0.85 0.83 0.77 0.65 0.60 0.62 0.63 0.62 0.59 0.58
1.47 2.65 3.30 3.32 2.15 1.78 1.78 1.61 1.50 1.08 0.76 0.65 0.57 0.47 0.62 0.86 0.91 1.28 1.90 1.57 1.17 1.12 1.18 1.54 1.74 1.53 1.40 1.33 1.35 1.47 1.52 1.48 1.42 1.29 1.01 0.87 0.86 0.88 0.89 0.90 0.86 0.79 0.75 0.67 0.63 0.61 0.57 0.57 0.55
1.81 2.79 2.92 2.43 1.89 1.53 1.45 1.54 1.27 0.96 0.74 0.52 0.50 0.53 0.59 0.94 1.09 1.21 1.28 1.19 1.05 1.08 1.12 1.36 1.62 1.49 1.35 1.29 1.31 1.26 1.20 1.21 1.28 1.18 0.97 0.86 0.90 0.90 0.89 0.83 0.79 0.77 0.77 0.74 0.70 0.65 0.60 0.59 0.53
2.39 2.96 2.68 2.10 1.76 1.53 1.30 1.20 1.05 1.01 0.88 0.62 0.54 0.66 0.84 1.23 1.31 1.34 1.24 1.15 1.05 1.07 1.01 1.15 1.37 1.30 1.21 1.27 1.33 1.31 1.17 1.17 1.19 1.13 1.04 0.90 0.86 0.89 0.89 0.80 0.70 0.66 0.67 0.66 0.66 0.62 0.58 0.54 0.53
2.73 2.80 2.67 2.24 1.77 1.55 1.34 1.09 0.95 0.93 0.84 0.68 0.63 0.81 1.19 1.63 1.64 1.68 1.34 1.28 1.26 1.05 0.95 0.95 1.07 1.06 1.02 1.11 1.36 1.43 1.18 1.18 1.14 1.00 0.93 0.88 0.78 0.78 0.77 0.71 0.69 0.66 0.66 0.66 0.64 0.58 0.53 0.51 0.52
2.79 2.70 2.44 1.98 1.76 1.73 1.44 0.96 0.87 0.85 0.82 0.69 0.62 0.84 1.32 1.85 1.77 1.58 1.34 1.22 1.28 1.16 1.02 0.92 0.88 0.90 0.99 1.12 1.12 1.10 1.14 1.25 1.18 0.96 0.85 0.85 0.72 0.63 0.62 0.64 0.65 0.65 0.69 0.71 0.65 0.55 0.49 0.52 0.55
2.15 2.37 2.36 2.19 1.96 1.98 1.32 0.85 0.68 0.67 0.75 0.52 0.51 0.78 1.18 1.53 1.44 1.44 1.32 1.21 1.21 1.07 0.94 0.83 0.79 0.81 0.86 0.97 1.03 0.99 1.00 1.09 1.08 0.96 0.92 0.90 0.72 0.60 0.61 0.60 0.64 0.68 0.71 0.78 0.73 0.61 0.55 0.56 0.60
1.94 2.33 2.60 2.51 1.95 1.76 1.17 0.97 0.66 0.54 0.54 0.50 0.52 0.58 0.77 0.86 0.92 1.10 1.13 1.05 1.08 0.96 0.87 0.80 0.72 0.73 0.78 0.86 0.90 1.00 1.02 1.04 0.97 0.89 0.92 0.81 0.60 0.55 0.59 0.55 0.68 0.79 0.93 0.94 0.86 0.77 0.68 0.63 0.57
2.07 2.34 2.35 1.87 1.38 1.26 1.16 1.00 0.66 0.69 0.75 0.67 0.63 0.63 0.83 0.86 0.88 1.04 1.04 0.99 0.96 0.95 0.86 0.79 0.77 0.71 0.70 0.74 0.98 1.14 1.01 0.91 0.80 0.82 0.80 0.78 0.75 0.72 0.53 0.55 0.72 0.79 0.88 0.92 0.87 0.82 0.69 0.52 0.42
1.51 1.76 1.68 1.40 1.01 0.92 0.94 0.78 0.59 0.80 0.96 0.76 0.70 0.73 0.86 0.93 0.95 0.99 1.04 1.00 0.92 0.90 0.82 0.73 0.69 0.62 0.60 0.74 0.91 1.08 1.13 1.09 1.05 0.90 0.90 0.86 0.77 0.66 0.52 0.49 0.55 0.61 0.70 0.69 0.76 0.75 0.54 0.45 0.47
1.27 1.20 1.23 1.22 0.88 0.89 0.89 0.71 0.74 0.85 0.84 0.62 0.57 0.59 0.75 0.85 0.87 0.90 0.94 0.94 0.80 0.77 0.80 0.70 0.64 0.59 0.54 0.53 0.64 0.79 0.84 0.83 0.84 0.85 0.79 0.80 0.82 0.75 0.64 0.59 0.63 0.65 0.65 0.71 0.78 0.77 0.63 0.55 0.47
1.34 1.21 1.06 1.08 0.93 0.90 0.87 0.72 0.75 0.90 0.72 0.58 0.60 0.64 0.76 0.82 0.83 0.77 0.72 0.73 0.73 0.72 0.72 0.72 0.68 0.63 0.67 0.64 0.59 0.57 0.62 0.68 0.73 0.80 0.72 0.67 0.70 0.73 0.75 0.69 0.74 0.70 0.69 0.72 0.74 0.63 0.61 0.62 0.53
1.13 1.10 1.15 1.16 1.06 0.89 0.94 0.81 0.80 1.01 0.79 0.70 0.68 0.71 0.73 0.80 0.77 0.68 0.62 0.57 0.54 0.66 0.74 0.74 0.66 0.68 0.66 0.61 0.61 0.63 0.63 0.66 0.69 0.73 0.66 0.60 0.60 0.63 0.74 0.73 0.78 0.70 0.72 0.80 0.73 0.67 0.70 0.71 0.62
0.91 1.16 1.26 1.15 1.09 1.01 1.01 1.13 1.03 1.04 0.89 0.81 0.75 0.73 0.76 0.79 0.76 0.70 0.64 0.55 0.50 0.53 0.66 0.75 0.72 0.73 0.69 0.65 0.67 0.69 0.67 0.63 0.66 0.69 0.62 0.58 0.61 0.62 0.75 0.79 0.78 0.75 0.79 0.82 0.86 0.86 0.81 0.72 0.65
1.07 1.31 1.57 1.21 1.10 1.00 1.12 1.38 1.16 1.11 1.04 0.89 0.70 0.70 0.70 0.71 0.72 0.74 0.67 0.57 0.52 0.49 0.57 0.68 0.69 0.74 0.76 0.75 0.77 0.74 0.68 0.68 0.72 0.75 0.70 0.66 0.64 0.67 0.87 0.92 0.82 0.87 0.98 1.02 1.06 1.03 0.94 0.85 0.81
1.41 1.45 1.38 1.23 1.01 0.91 1.05 1.18 1.12 1.12 1.10 0.95 0.69 0.58 0.57 0.58 0.62 0.68 0.61 0.55 0.51 0.50 0.52 0.57 0.63 0.83 0.84 0.80 0.86 0.87 0.83 0.88 0.91 0.92 0.90 0.84 0.81 0.89 1.06 1.13 1.04 1.02 1.18 1.16 1.06 1.09 1.12 1.04 1.04
1.18 1.03 0.96 1.05 0.90 0.87 0.98 0.95 1.02 1.04 0.98 0.87 0.70 0.55 0.51 0.52 0.53 0.52 0.47 0.46 0.43 0.45 0.44 0.50 0.61 0.74 0.83 0.97 1.05 1.13 1.14 1.14 1.25 1.31 1.29 1.12 1.07 1.13 1.28 1.38 1.34 1.30 1.43 1.43 1.31 1.41 1.42 1.34 1.37
0.78 0.77 0.84 0.83 0.70 0.77 0.86 0.86 0.93 0.91 0.87 0.74 0.63 0.53 0.47 0.45 0.46 0.42 0.37 0.37 0.35 0.35 0.36 0.42 0.60 0.77 0.91 1.02 1.15 1.40 1.56 1.66 1.65 1.65 1.70 1.62 1.44 1.52 1.64 1.61 1.82 1.90 1.88 1.89 1.82 1.94 1.98 1.72 1.55
0.70 0.74 0.79 0.74 0.62 0.67 0.75 0.80 0.85 0.81 0.74 0.60 0.54 0.49 0.41 0.38 0.38 0.37 0.31 0.29 0.27 0.25 0.29 0.35 0.50 0.75 0.98 1.18 1.35 1.54 1.86 2.02 2.02 2.09 2.01 1.96 1.85 1.87 1.79 1.87 2.08 2.13 2.25 2.34 2.18 2.31 2.40 2.09 1.79
0.63 0.64 0.68 0.67 0.69 0.68 0.69 0.82 0.88 0.86 0.72 0.56 0.46 0.40 0.35 0.29 0.32 0.34 0.30 0.25 0.20 0.20 0.22 0.28 0.41 0.64 0.94 1.23 1.48 1.67 1.90 2.17 2.26 2.16 2.12 2.14 2.22 2.26 2.15 2.11 2.23 2.25 2.33 2.53 2.57 2.52 2.63 2.56 2.22
0.71 0.47 0.45 0.50 0.62 0.79 0.68 0.95 0.88 0.83 0.75 0.60 0.51 0.44 0.37 0.32 0.31 0.31 0.28 0.29 0.23 0.22 0.23 0.27 0.41 0.57 0.77 1.02 1.35 1.60 1.85 2.16 2.23 2.22 2.20 2.24 2.34 2.42 2.38 2.33 2.39 2.40 2.35 2.48 2.57 2.55 2.77 2.96 2.70
0.56 0.37 0.39 0.49 0.51 0.58 0.54 0.76 0.82 0.69 0.74 0.67 0.59 0.51 0.42 0.35 0.33 0.30 0.28 0.28 0.30 0.29 0.29 0.36 0.49 0.63 0.79 1.01 1.33 1.65 1.83 1.99 2.20 2.23 2.13 2.08 2.14 2.14 2.12 2.24 2.39 2.41 2.38 2.40 2.59 2.70 2.88 2.88 2.81
0.41 0.41 0.43 0.47 0.51 0.61 0.42 0.57 0.74 0.68 0.64 0.63 0.59 0.55 0.43 0.33 0.32 0.34 0.38 0.37 0.36 0.40 0.42 0.50 0.61 0.80 0.94 1.01 1.14 1.31 1.52 1.79 1.93 2.03 2.07 2.09 2.10 1.97 1.88 1.99 2.09 2.18 2.23 2.22 2.28 2.44 2.58 2.76 2.91
0.38 0.55 0.72 0.73 0.71 0.63 0.33 0.47 0.60 0.51 0.47 0.52 0.52 0.51 0.47 0.42 0.42 0.49 0.57 0.53 0.49 0.52 0.61 0.68 0.75 0.83 0.87 0.85 0.90 1.02 1.18 1.40 1.53 1.62 1.81 1.89 1.93 1.89 1.84 1.81 1.87 1.95 2.00 2.10 2.27 2.26 2.29 2.47 2.68
0.39 0.48 0.70 0.79 0.69 0.56 0.44 0.58 0.59 0.49 0.43 0.46 0.48 0.45 0.44 0.49 0.55 0.68 0.78 0.79 0.74 0.72 0.74 0.73 0.74 0.70 0.70 0.72 0.78 0.84 0.90 1.04 1.16 1.23 1.38 1.51 1.51 1.50 1.49 1.56 1.64 1.79 1.89 1.98 2.13 2.18 2.13 2.21 2.28
0.33 0.28 0.29 0.44 0.43 0.51 0.53 0.64 0.63 0.46 0.40 0.44 0.47 0.45 0.45 0.56 0.70 0.85 0.97 1.02 0.95 0.87 0.81 0.79 0.79 0.75 0.67 0.67 0.74 0.80 0.84 0.85 0.88 0.93 0.91 1.00 1.08 1.11 1.16 1.24 1.38 1.56 1.70 1.76 1.87 2.01 2.00 2.06 2.06
0.22 0.23 0.29 0.51 0.67 0.72 0.62 0.67 0.73 0.60 0.49 0.50 0.55 0.62 0.69 0.84 0.91 1.03 1.11 1.08 1.05 1.08 1.03 0.86 0.80 0.81 0.75 0.81 0.81 0.77 0.76 0.73 0.73 0.77 0.81 0.82 0.91 1.01 1.11 1.13 1.20 1.33 1.42 1.52 1.69 1.83 1.90 1.93 1.91
0.20 0.24 0.37 0.56 0.63 0.84 0.97 1.01 0.78 0.64 0.63 0.63 0.68 0.86 0.93 1.02 1.09 1.11 1.18 1.12 0.98 0.98 0.94 0.92 0.87 0.84 0.85 0.87 0.87 0.76 0.73 0.74 0.74 0.72 0.75 0.83 0.91 1.01 1.07 1.11 1.15 1.18 1.27 1.32 1.43 1.58 1.71 1.75 1.76
0.31 0.43 0.57 0.86 0.85 0.79 1.08 1.23 0.85 0.70 0.72 0.74 0.74 0.73 0.75 0.93 1.04 1.06 1.13 1.05 0.89 0.84 0.74 0.77 0.85 0.87 0.94 0.94 0.86 0.76 0.75 0.78 0.84 0.83 0.77 0.80 0.85 0.87 0.98 1.10 1.08 1.07 1.12 1.20 1.31 1.41 1.46 1.56 1.54